Terug naar catalogus

STARLINK-4546

ActiefCommunicatieVLEO
NORAD 53422·PAYLOAD·🇺🇸 United States

Gelanceerd Aug 10, 2022 vanaf Cape Canaveral Space Force Station

Loading…

Volgende Passages (komende 24 uur)

TLE

VersSource: CelesTrak SupGP

Epoch: Sep 15, 2026, 02:12 UTC

1 53422C 22097AL  26258.09215278  .00050847  00000+0  15023-2 0  2587
2 53422  53.1574 331.2675 0001238  89.0603 186.9893 15.34364440    19

Volg STARLINK-4546 in realtime met AllMySat

Download on the App Store